Regional Weather Roundup
Issued by NWS Albany, NY

Home | Current Version | Previous Version | Text Only | Print | Product List | Glossary On
Versions: 1 2 3 4 5 6 7 8 9 10 11 12 13 14 15 16 17 18 19 20 21 22 23 24 25 26 27 28 29 30 31 32 33 34 35 36 37 38 39 40 41 42 43 44 45 46 47 48 49 50
000
ASUS41 KALY 011210
RWRALY

NEW YORK STATE HOURLY WEATHER ROUNDUP
NATIONAL WEATHER SERVICE ALBANY NY
800 AM EDT WED APR 01 2015

NOTE: "FAIR" INDICATES FEW OR NO CLOUDS BELOW 12,000 FEET WITH NO
SIGNIFICANT WEATHER AND/OR NO OBSTRUCTIONS TO VISIBILITY.

NYZ032-033-038>043-046>054-057>066-NYZ062>081-011300-
EAST


CITY           SKY/WX    TMP DP  RH WIND       PRES   REMARKS
ALBANY         MOSUNNY   29  13  51 NE3       30.02R
GLENS FALLS    SUNNY     25  15  66 CALM      30.02R
POUGHKEEPSIE   PTSUNNY   27  23  85 CALM      30.01R
NEWBURGH       MOSUNNY   25  25 100 CALM      30.00
MONTGOMERY     FAIR      25  25 100 CALM      30.00R
WHITE PLAINS   PTSUNNY   32  15  49 N9        29.97R WCI  24
ISLIP          PTSUNNY   34  17  50 N12       29.98R WCI  25
NEW YORK CITY  PTSUNNY   34  20  56 N7        30.01R WCI  28
CENTRAL PARK   PTSUNNY   33  20  58 CALM      30.03R
$$

NYZ005>009-017-018-044>046-055-056-011300-
CENTRAL


CITY           SKY/WX    TMP DP  RH WIND       PRES   REMARKS
FULTON         SUNNY     26  17  68 N6        30.08R WCI  19
SYRACUSE       MOSUNNY   27  20  75 NW5       30.07R WCI  22
ROME           SUNNY     20  16  84 CALM      30.07R
ELMIRA         MOSUNNY   26  25  96 SW5       30.04R WCI  20
BINGHAMTON     SUNNY     25  20  81 NW6       29.98R WCI  18
MONTICELLO     FAIR      21  16  79 W5        29.98R WCI  15
$$

NYZ026>034-041>043-011300-
NORTH


CITY           SKY/WX    TMP DP  RH WIND       PRES   REMARKS
WATERTOWN      SUNNY     22  16  78 CALM      30.09R
FORT DRUM      NOT AVBL
MASSENA        SUNNY     24   5  44 N8        30.10R WCI  15
SARANAC LAKE   SUNNY      6   2  83 CALM      29.95R
PLATTSBURGH    SUNNY     25   8  48 N12       30.06R WCI  14
$$

NYZ001>004-010>016-019>021-011300-
WEST


CITY           SKY/WX    TMP DP  RH WIND       PRES   REMARKS
NIAGARA FALLS  MOSUNNY   26  21  81 CALM      30.10R
BUFFALO        MOSUNNY   27  23  85 SW5       30.10R WCI  22
DUNKIRK        PTSUNNY   28  26  92 CALM      30.11R
JAMESTOWN      PTSUNNY   25  21  86 CALM      30.05R
WELLSVILLE     SUNNY     26  21  81 NW10      30.01R WCI  16
ROCHESTER      MOSUNNY   30  25  81 NW3       30.10R
PENN YAN       PTSUNNY   30  23  75 NW10G18   30.05R WCI  21
$$

             KEY
       WCI = WIND CHILL INDEX
       VSB = VISIBILITY
       HX  = HEAT INDEX
$$


USA.gov is the U.S. government's official web portal to all federal, state and local government web resources and services.